Regional Weather Roundup
Issued by NWS

Home | Current Version | Previous Version | Graphics & Text | Print | Product List | Glossary On
Versions: 1 2 3 4 5 6 7 8 9 10 11 12 13 14 15 16 17 18 19 20 21 22 23 24 25 26 27 28 29 30 31 32 33 34 35 36 37 38 39 40 41 42 43 44 45 46 47 48 49 50
000
ASUS45 KTFX 282004
RWRMT
MONTANA HOURLY WEATHER ROUNDUP
NATIONAL WEATHER SERVICE GREAT FALLS MT
104 PM MST FRI NOV 28 2014

NOTE: "FAIR" INDICATES FEW OR NO CLOUDS BELOW 12000 FEET WITH NO
SIGNIFICANT WEATHER AND/OR OBSTRUCTIONS TO VISIBILITY.

* THESE STATIONS ARE NOT UNDER NWS QUALITY CONTROL. THEY DO NOT
   REPORT WEATHER SUCH AS PRECIPITATION OR FOG.

MTZ001>007-043-282100-
WEST OF THE DIVIDE
CITY           SKY/WX    TMP DP  RH WIND       PRES   REMARKS
KALISPELL      CLOUDY    46  39  77 SE13      29.40F
MISSOULA       CLOUDY    48  37  66 VRB5      29.56F
BUTTE          CLOUDY    45  28  51 N/A       29.65F
MULLAN PASS    RAIN      34  34 100 SW12G30   29.47F VSB 1 1/4 WCI  25
* ESSEX        N/A       43  36  76 NE6G12     N/A
* LINCOLN      N/A       45  36  71 W5G12      N/A
* LOOKOUT PASS N/A       40  38  93 E12G27     N/A   WCI  33
* POLSON       N/A       44  40  86 SW3G9      N/A
* RONAN APT    CLOUDY    50  37  61 SE16G24    N/A
* SEELEY LAKE  N/A       44  35  71 S11G21     N/A
* THOMP F APT  CLOUDY    44  24  45 E6G11      N/A
* YAAK HILL    N/A       46  42  86 SE1        N/A
$$

MTZ008-052>055-282100-
SOUTHWEST MONTANA
CITY           SKY/WX    TMP DP  RH WIND       PRES   REMARKS
BOZEMAN        CLOUDY    52  27  38 SW14G22   29.62F
DILLON         CLOUDY    52  21  30 SW31G39   29.64F
* W YELLOWSTON CLOUDY    38  24  57 SW7G18     N/A   WCI  33
* ENNIS APT    CLOUDY    52  21  30 S18        N/A
* THREE FORKS  CLOUDY    54  48  80 S16G32     N/A
* BOULDER HILL N/A       45  24  44 S19G32     N/A
* MONIDA PASS  N/A       39  24  55 SE15G20    N/A   WCI  31
* RAYNOLDS PAS N/A       40  21  47 SE20G31    N/A   WCI  30
* WHITEHALL    N/A       51  28  41 SW17G34    N/A
* WISE RIVER   N/A       41  33  73 NW9G21     N/A
$$

MTZ009>010-012-014-046-048-049-054-282100-
EAST SLOPES AND CENTRAL MONTANA
CITY           SKY/WX    TMP DP  RH WIND       PRES   REMARKS
CUT BANK       LGT SNOW   9   5  84 N30       29.49R VSB 2 1/2 WCI -14
GREAT FALLS    PTCLDY    54  34  47 SW28G45   29.41F
HELENA         CLOUDY    52  36  55 NE12      29.52F
MALMSTROM AFB  PTCLDY    54  34  47 SW33G49   29.44F
* DEARBORN     N/A       53  34  49 S11G22     N/A
* EAST GLACIER N/A       38  35  89 W16        N/A   WCI  29
* MONARCH      N/A       47  23  39 SW32G40    N/A
* PENDROY      N/A       49  34  56 SW24G32    N/A
* ROGERS PASS  N/A       39  33  79 SE9G21     N/A   WCI  33
* SAINT MARY   N/A        8   4  84 NE9G19     N/A   WCI  -5
* SWEET GRASS  N/A        2   1  96 VRB18      N/A   WCI -18
$$

MTZ011-013-016-021-035-040-045-047-050-051-282100-
NORTH CENTRAL MONTANA
CITY           SKY/WX    TMP DP  RH WIND       PRES   REMARKS
HAVRE          CLOUDY    18  14  84 NW21      29.53R WCI   1
LEWISTOWN      PTCLDY    55  30  39 SW29G38   29.46F
* N BAR RANCH  SUNNY     54  28  37 SW21G31   29.48F
* CHESTER      N/A       26  22  85 NE7G12     N/A   WCI  18
* DENTON       N/A       57  32  39 SW23G29    N/A
* GEYSER       N/A       54  27  35 SW29G37    N/A
* JUDITH GAP   N/A       53  28  38 SW45G59    N/A
* LOMA         N/A       35  26  70 N24G32     N/A   WCI  23
$$

MTZ017>020-022>027-061-062-282100-
NORTHEAST MONTANA
CITY           SKY/WX    TMP DP  RH WIND       PRES   REMARKS
GLASGOW        FOG       27  21  78 SE14      29.42F WCI  16
GLENDIVE       PTSUNNY   36  30  79 S8        29.49F WCI  30
JORDAN         SUNNY     57  36  46 SW16      29.42F
SIDNEY         PTSUNNY   28  25  89 CALM      29.51F
WOLF POINT     FOG       27  23  85 E7        29.48F WCI  19
* BEAVER HILL  N/A       46  33  61 S13G19     N/A
* CIRCLE       N/A       47  38  71 S5G12      N/A
* LINDSAY DVD  N/A       50  33  52 SW16G21    N/A
* NAVAJO       N/A       19  17  92 S7         N/A   WCI  10
* SACO         N/A       29  25  85 NE8        N/A   WCI  21
$$

MTZ028>042-056>058-282100-
SOUTHCENTRAL AND SOUTHEAST MONTANA
CITY           SKY/WX    TMP DP  RH WIND       PRES   REMARKS
BAKER          CLOUDY    48  34  59 SW3       29.52F
BILLINGS       PTCLDY    59  28  31 SW8       29.55F
LIVINGSTON     CLOUDY    55  21  27 SW33G49   29.56F
MILES CITY     CLOUDY    46  36  68 S9        29.49F
* LAUREL APT   PTCLDY    61  27  27 SW8        N/A
* ALZADA       N/A       55  33  43 NW5        N/A
* HYSHAM       N/A       52  23  32 W6         N/A
* LAME DEER    N/A       55  26  33 W11        N/A
* REED POINT   N/A       61  26  26 W19G34     N/A
* ROSCOE HILL  N/A       50  10  20 SW28G44    N/A
$$

REGIONAL REPORTS...DAKOTAS
CITY           SKY/WX    TMP DP  RH WIND       PRES   REMARKS
WILLISTON      PTSUNNY   23  18  81 SE8       29.52F WCI  14
DICKINSON      CLOUDY    37  28  70 SE6       29.51F WCI  32
BEACH          PTSUNNY   45  32  60 SW8       29.50F
CROSBY         CLOUDY    16  10  77 SE18      29.53F
BISMARCK       PTCLDY    19  14  81 SE12      29.65F WCI   6
GRAND FORKS    LGT SNOW  16   9  74 E8        29.83F WCI   5
FARGO          CLOUDY    18  10  71 E6        29.82F WCI  10
BUFFALO SD     CLOUDY    52  34  50 SW5       29.50F
RAPID CITY     PTCLDY    63  34  34 SE9       29.59F
$$

REGIONAL REPORTS...WYOMING/IDAHO/WASHINGTON
CITY           SKY/WX    TMP DP  RH WIND       PRES   REMARKS
GILLETTE       PTCLDY    54  25  33 SW16      29.62F
SHERIDAN       CLOUDY    63  21  20 SW13G31   29.57F
CODY           PTSUNNY   52  25  35 SW30G52   29.64R
YELLOWSTONE LA CLOUDY    37  18  46 VRB7      29.85F WCI  32
SALMON         CLOUDY    57  27  32 SW18G28   29.63F
MULLAN PASS    RAIN      34  34 100 SW12G30   29.47S VSB 1 1/4 WCI  25
SAND POINT     CLOUDY    52  41  66 SW15G25   29.39F
SPOKANE        CLOUDY    52  43  72 SW28G36   29.43F
$$

REGIONAL REPORTS...SASKATCHEWAN
CITY           SKY/WX    TMP DP  RH WIND       PRES   REMARKS
SWIFT CURRENT  FOG       25  23  92 W20G26    29.42R VSB 2 1/4 WCI  11

$$




USA.gov is the U.S. government's official web portal to all federal, state and local government web resources and services.